Regional Weather Roundup
Issued by NWS Mobile, AL

Home | Current Version | Previous Version | Text Only | Print | Product List | Glossary On
Versions: 1 2 3 4 5 6 7 8 9 10 11 12 13 14 15 16 17 18 19 20 21 22 23 24 25 26 27 28 29 30 31 32 33 34 35 36 37 38 39 40 41 42 43 44 45 46 47 48 49 50
000
ASUS44 KMOB 051512
RWRMOB
REGIONAL WEATHER ROUNDUP
NATIONAL WEATHER SERVICE MOBILE AL
900 AM CST THU MAR 05 2015

NOTE: "FAIR" INDICATES FEW OR NO CLOUDS BELOW 12,000 FEET WITH NO
      SIGNIFICANT WEATHER AND/OR OBSTRUCTIONS TO VISIBILITY.

  * THESE STATIONS ARE PART OF THE UNIVERSITY OF SOUTH ALABAMA
    MESONET AND ARE NOT UNDER NWS OR FAA QUALITY CONTROL.

ALZ061>064-051600-
COASTAL ALABAMA

CITY           SKY/WX    TMP DP  RH WIND       PRES   REMARKS
MOBILE REG APT CLOUDY    44  41  89 N24G33    30.17R FOG
BROOKLEY FIELD LGT RAIN  48  44  86 NW24G43   30.15R
USA CAMPUS*      N/A     46  43  87 W3        30.15R
DOG RIVER*     NOT AVBL


CITY           SKY/WX    TMP DP  RH WIND       PRES   REMARKS
MOUNT VERNON*    N/A     41  37  87 NW6       30.21R
SARALAND*      NOT AVBL
BAY MINETTE*   NOT AVBL
LOXLEY*          N/A     48  48 100 NW21      30.10R
ROBERTSDALE*     N/A     52  50  93 N10       30.09R
FAIRHOPE*      NOT AVBL
ELBERTA*         N/A     70  70 100 SW2       30.01R
FOLEY*         NOT AVBL
GRAND BAY*       N/A     48  45  87 SE12      30.13R
DAUPHIN ISLND* NOT AVBL
BON SCOUR NWR* NOT AVBL
GULF SHORES    CLOUDY    71  71  98 W7        30.01S

$$

ALZ051>060-051600-
INTERIOR SOUTHWEST AND SOUTH CENTRAL ALABAMA

CITY           SKY/WX    TMP DP  RH WIND       PRES   REMARKS
GREENVILLE     CLOUDY    45  42  89 NW16G25   30.12R FOG
EVERGREEN      LGT RAIN  45  43  93 NW20G31   30.14R
CASTLEBERRY*   NOT AVBL
ATMORE*          N/A     45  45 100 NW20      30.14R
DIXIE*         NOT AVBL
ANDALUSIA/OPP  LGT RAIN  64  55  72 N21G44    30.05  SQUALL
ANDALUSIA*       N/A     72  70  94 SW8       30.01R
FLORALA APT    CLOUDY    73  68  83 SW12G18   30.02R
FLORALA*         N/A     73  70  88 S6        29.98R

$$

FLZ001>006-051600-
WESTERN FLORIDA PANHANDLE

CITY           SKY/WX    TMP DP  RH WIND       PRES   REMARKS
PENSACOLA      LGT RAIN  69  69 100 SW7       30.01S FOG
NAS PENSACOLA  LGT RAIN  69  69 100 SW8       30.02  FOG
MILTON         LGT RAIN  72  70  93 SW9       30.02
WHTNG S FIELD  CLOUDY    73  70  90 VRB7      30.02R FOG


CITY           SKY/WX    TMP DP  RH WIND       PRES   REMARKS
WALNUT HILL*   NOT AVBL
JAY*             N/A     50  48  93 NW16      30.09R
DUKE FIELD     CLOUDY    73  70  91 S14       30.01R FOG
CRESTVIEW      CLOUDY    74  70  87 SW12G17   30.02S
VALPARAISO     DRIZZLE   69  69  99 SW12      30.01  FOG
DESTIN         CLOUDY    70  67  90 S8        30.02R

$$

MSZ076-079-051600-
INTERIOR SOUTHEAST MISSISSIPPI

CITY           SKY/WX    TMP DP  RH WIND       PRES   REMARKS
LEAKESVILLE*     N/A    N/A N/A N/A N5        30.21R
AGRICOLA*      NOT AVBL

$$

MARINE OBSERVATIONS

STATION/POSITION TIME  TEMP    WIND        PRES    WAVE
                       AIR SEA DIR/SP/G            HT/PER
                 (UTC) (F)     (DEG/KT/KT) (MB)    (FT/S)
E DAUPHIN ISLAND NOT AVBL
12 S ORANGE BCH  NOT AVBL

$$

SELECTED LOCATIONS ACROSS THE REGION

CITY           SKY/WX    TMP DP  RH WIND       PRES   REMARKS
NEW ORLEANS    LGT RAIN  43  39  86 N17G23    30.19R FOG
GULFPORT       CLOUDY    44  39  82 N20G32    30.16R
PASCAGOULA AP  CLOUDY    47  43  86 N18G31    30.14R
PASCAGOULA*    NOT AVBL
HATTIESBURG    LGT RAIN  39  37  92 N9        30.23R
LAUREL         CLOUDY    37  34  87 N13G20    30.23R
MERIDIAN       LGT RAIN  35  35 100 N12       30.25R WCI  27
JACKSON        LGTSLEET  32  30  92 N16G22    30.30R FOG     WCI  21
MONTGOMERY     CLOUDY    44  39  82 NW23G30   30.15R
TROY           LGT RAIN  55  54  96 NW20G28   30.05R FOG
KINSTON*       NOT AVBL
GENEVA*        NOT AVBL
ASHFORD*         N/A     72  70  94 SW8       30.01R
DOTHAN         CLOUDY    73  67  81 SW18G24   30.04S
PANAMA CITY    PTSUNNY   73  69  87 S14       30.04R

$$



USA.gov is the U.S. government's official web portal to all federal, state and local government web resources and services.